Time,TemperatureF,DewpointF,PressureIn,WindDirection,WindDirectionDegrees,WindSpeedMPH,WindSpeedGustMPH,Humidity,HourlyPrecipIn,Conditions,Clouds,dailyrainin,SolarRadiationWatts/m^2,SoftwareType,DateUTC
2013-02-16 00:21:00,62.0,18.0,30.27,ESE,105,16.0,25.0,18,-99.99,,,-99.99,0.000000,,2013-02-16 08:21:00,
2013-02-16 01:21:00,63.0,16.0,30.26,ESE,112,12.0,24.0,16,-99.99,,,-99.99,0.000000,,2013-02-16 09:21:00,
2013-02-16 01:40:00,62.0,14.0,30.26,ESE,112,15.0,26.0,15,-99.99,,,-99.99,0.000000,,2013-02-16 09:40:00,
2013-02-16 02:21:00,62.0,14.0,30.26,ESE,112,15.0,26.0,15,-99.99,,,-99.99,0.000000,,2013-02-16 10:21:00,
2013-02-16 02:31:00,62.0,14.0,30.26,ESE,112,15.0,26.0,15,-99.99,,,-99.99,0.000000,,2013-02-16 10:31:00,
2013-02-16 03:22:00,63.0,10.0,30.23,ESE,119,21.0,30.0,12,-99.99,,,-99.99,0.000000,,2013-02-16 11:22:00,
2013-02-16 03:40:00,62.0,12.0,30.21,ESE,114,16.0,23.0,14,-99.99,,,-99.99,0.000000,,2013-02-16 11:40:00,
2013-02-16 04:22:00,62.0,12.0,30.21,ESE,114,16.0,23.0,14,-99.99,,,-99.99,0.000000,,2013-02-16 12:22:00,
2013-02-16 04:32:00,62.0,12.0,30.21,ESE,114,16.0,23.0,14,-99.99,,,-99.99,0.000000,,2013-02-16 12:32:00,
2013-02-16 04:40:00,60.0,15.0,30.22,SE,131,8.0,14.0,17,-99.99,,,-99.99,0.000000,,2013-02-16 12:40:00,
2013-02-16 05:21:00,60.0,15.0,30.22,SE,131,8.0,14.0,17,-99.99,,,-99.99,0.000000,,2013-02-16 13:21:00,
2013-02-16 05:31:00,60.0,15.0,30.22,SE,131,8.0,14.0,17,-99.99,,,-99.99,0.000000,,2013-02-16 13:31:00,
2013-02-16 06:21:00,61.0,14.0,30.22,WNW,302,1.0,3.0,16,-99.99,,,-99.99,0.000000,,2013-02-16 14:21:00,
2013-02-16 06:32:00,61.0,14.0,30.22,WNW,302,1.0,3.0,16,-99.99,,,-99.99,0.000000,,2013-02-16 14:32:00,
2013-02-16 07:21:00,61.0,16.0,30.21,SSW,192,1.0,3.0,17,-99.99,,,-99.99,0.000000,,2013-02-16 15:21:00,
2013-02-16 07:40:00,62.0,21.0,30.22,East,96,4.0,6.0,21,-99.99,,,-99.99,63.000000,,2013-02-16 15:40:00,
2013-02-16 08:21:00,62.0,21.0,30.22,East,96,4.0,6.0,21,-99.99,,,-99.99,63.000000,,2013-02-16 16:21:00,
2013-02-16 08:32:00,62.0,21.0,30.22,East,96,4.0,6.0,21,-99.99,,,-99.99,63.000000,,2013-02-16 16:32:00,
2013-02-16 08:40:00,63.0,21.0,30.23,SSE,148,4.0,6.0,20,-99.99,,,-99.99,191.000000,,2013-02-16 16:40:00,
2013-02-16 09:21:00,63.0,21.0,30.23,SSE,148,4.0,6.0,20,-99.99,,,-99.99,191.000000,,2013-02-16 17:21:00,
2013-02-16 09:32:00,63.0,21.0,30.23,SSE,148,4.0,6.0,20,-99.99,,,-99.99,191.000000,,2013-02-16 17:32:00,
2013-02-16 09:40:00,64.0,27.0,30.23,SSW,203,1.0,3.0,24,-99.99,,,-99.99,389.000000,,2013-02-16 17:40:00,
2013-02-16 10:21:00,64.0,27.0,30.23,SSW,203,1.0,3.0,24,-99.99,,,-99.99,389.000000,,2013-02-16 18:21:00,
2013-02-16 10:33:00,64.0,27.0,30.23,SSW,203,1.0,3.0,24,-99.99,,,-99.99,389.000000,,2013-02-16 18:33:00,
2013-02-16 10:40:00,64.0,28.0,30.23,WSW,249,2.0,5.0,26,-99.99,,,-99.99,707.000000,,2013-02-16 18:40:00,
2013-02-16 11:21:00,64.0,28.0,30.23,WSW,249,2.0,5.0,26,-99.99,,,-99.99,707.000000,,2013-02-16 19:21:00,
2013-02-16 11:31:00,64.0,28.0,30.23,WSW,249,2.0,5.0,26,-99.99,,,-99.99,707.000000,,2013-02-16 19:31:00,
2013-02-16 11:40:00,67.0,29.0,30.22,South,183,4.0,8.0,24,-99.99,,,-99.99,605.000000,,2013-02-16 19:40:00,
2013-02-16 12:21:00,67.0,29.0,30.22,South,183,4.0,8.0,24,-99.99,,,-99.99,605.000000,,2013-02-16 20:21:00,
2013-02-16 12:32:00,67.0,29.0,30.22,South,183,4.0,8.0,24,-99.99,,,-99.99,605.000000,,2013-02-16 20:32:00,
2013-02-16 12:40:00,64.0,30.0,30.20,SW,232,3.0,5.0,28,-99.99,,,-99.99,676.000000,,2013-02-16 20:40:00,
2013-02-16 13:21:00,64.0,30.0,30.20,SW,232,3.0,5.0,28,-99.99,,,-99.99,676.000000,,2013-02-16 21:21:00,
2013-02-16 13:31:00,64.0,30.0,30.20,SW,232,3.0,5.0,28,-99.99,,,-99.99,676.000000,,2013-02-16 21:31:00,
2013-02-16 13:40:00,65.0,32.0,30.17,SW,224,3.0,6.0,28,-99.99,,,-99.99,641.000000,,2013-02-16 21:40:00,
2013-02-16 14:21:00,65.0,32.0,30.17,SW,224,3.0,6.0,28,-99.99,,,-99.99,641.000000,,2013-02-16 22:21:00,
2013-02-16 14:32:00,65.0,32.0,30.17,SW,224,3.0,6.0,28,-99.99,,,-99.99,641.000000,,2013-02-16 22:32:00,
2013-02-16 14:40:00,65.0,32.0,30.16,WSW,255,4.0,7.0,29,-99.99,,,-99.99,620.000000,,2013-02-16 22:40:00,
2013-02-16 15:21:00,65.0,32.0,30.16,WSW,255,4.0,7.0,29,-99.99,,,-99.99,620.000000,,2013-02-16 23:21:00,
2013-02-16 15:31:00,65.0,32.0,30.16,WSW,255,4.0,7.0,29,-99.99,,,-99.99,620.000000,,2013-02-16 23:31:00,
2013-02-16 15:40:00,65.0,28.0,30.14,WSW,248,5.0,8.0,25,-99.99,,,-99.99,474.000000,,2013-02-16 23:40:00,
2013-02-16 16:21:00,65.0,28.0,30.14,WSW,248,5.0,8.0,25,-99.99,,,-99.99,474.000000,,2013-02-17 00:21:00,
2013-02-16 16:31:00,65.0,28.0,30.14,WSW,248,5.0,8.0,25,-99.99,,,-99.99,474.000000,,2013-02-17 00:31:00,
2013-02-16 16:40:00,63.0,28.0,30.13,West,261,2.0,4.0,27,-99.99,,,-99.99,210.000000,,2013-02-17 00:40:00,
2013-02-16 17:21:00,63.0,28.0,30.13,West,261,2.0,4.0,27,-99.99,,,-99.99,210.000000,,2013-02-17 01:21:00,
2013-02-16 17:31:00,63.0,28.0,30.13,West,261,2.0,4.0,27,-99.99,,,-99.99,210.000000,,2013-02-17 01:31:00,
2013-02-16 17:40:00,60.0,19.0,30.12,NE,45,3.0,4.0,20,-99.99,,,-99.99,37.000000,,2013-02-17 01:40:00,
2013-02-16 18:21:00,60.0,19.0,30.12,NE,45,3.0,4.0,20,-99.99,,,-99.99,37.000000,,2013-02-17 02:21:00,
2013-02-16 18:31:00,60.0,19.0,30.12,NE,45,3.0,4.0,20,-99.99,,,-99.99,37.000000,,2013-02-17 02:31:00,
2013-02-16 18:40:00,58.0,22.0,30.12,North,6,3.0,4.0,24,-99.99,,,-99.99,0.000000,,2013-02-17 02:40:00,
2013-02-16 19:21:00,58.0,22.0,30.12,North,6,3.0,4.0,24,-99.99,,,-99.99,0.000000,,2013-02-17 03:21:00,
2013-02-16 19:31:00,58.0,22.0,30.12,North,6,3.0,4.0,24,-99.99,,,-99.99,0.000000,,2013-02-17 03:31:00,
2013-02-16 19:40:00,57.0,19.0,30.12,NE,46,4.0,6.0,22,-99.99,,,-99.99,0.000000,,2013-02-17 03:40:00,
2013-02-16 20:21:00,57.0,19.0,30.12,NE,46,4.0,6.0,22,-99.99,,,-99.99,0.000000,,2013-02-17 04:21:00,
2013-02-16 20:31:00,57.0,19.0,30.12,NE,46,4.0,6.0,22,-99.99,,,-99.99,0.000000,,2013-02-17 04:31:00,
2013-02-16 20:40:00,58.0,16.0,30.10,NNW,339,5.0,8.0,19,-99.99,,,-99.99,0.000000,,2013-02-17 04:40:00,
2013-02-16 21:40:00,59.0,15.0,30.11,NNE,26,3.0,5.0,18,-99.99,,,-99.99,0.000000,,2013-02-17 05:40:00,
2013-02-16 22:21:00,59.0,15.0,30.11,NNE,26,3.0,5.0,18,-99.99,,,-99.99,0.000000,,2013-02-17 06:21:00,
2013-02-16 22:31:00,59.0,15.0,30.11,NNE,26,3.0,5.0,18,-99.99,,,-99.99,0.000000,,2013-02-17 06:31:00,
2013-02-16 23:21:00,58.0,15.0,30.10,NE,47,6.0,8.0,18,-99.99,,,-99.99,0.000000,,2013-02-17 07:21:00,